Flag for USA

Past Weather in Waynesville, North Carolina, USA — Yesterday and Last 2 Weeks

Now
80 °F

Sunny.


Feels Like: 81 °F
Forecast: 83 / 58 °F
Wind: 7 mph from Northwest

Location: Asheville Regional Airport

Current Time: Jul 11, 2020 at 8:49:04 pm

Latest Report: Jul 11, 2020 at 7:54 pm


Visibility: 10 mi

Pressure: 29.88 "Hg (27.22 "Hg at 821m altitude)

Humidity: 49%

Dew Point: 59 °F

Location of WaynesvilleLocation

Past Weather in Waynesville — Graph

°F

Waynesville Temperature Yesterday

Maximum temperature yesterday: 86 °F (at 1:54 pm)
Minimum temperature yesterday: 66 °F (at 4:02 am)
Average temperature yesterday: 72 °F

High & Low Weather Summary for the Past Weeks

 TemperatureHumidityPressure
High89 °F (Jul 4, 2:54 pm)100% (Jul 5, 6:06 am)30.14 "Hg (Jul 5, 6:06 am)
Low63 °F (Jun 28, 2:54 am)35% (Jul 2, 4:54 pm)29.85 "Hg (Jul 1, 5:54 pm)
Average74 °F78%29.98 "Hg
* Reported Jun 26 6:54 pm — Jul 11 6:54 pm, Waynesville. Weather by CustomWeather, © 2020

Note: Actual official high and low records may vary slightly from our data, if they occured in-between our weather recording intervals... More about our weather records

Waynesville Weather History for the Previous 24 Hours

Scroll right to see more
 ConditionsComfort  
Time TempWeatherWind HumidityBarometerVisibility
6:54 pm
Sat, Jul 11
81 °FSunny.7 mph45%29.88 "Hg10 mi
5:54 pm82 °FSunny.13 mph44%29.87 "Hg10 mi
4:54 pm83 °FSunny.9 mph44%29.86 "Hg10 mi
3:54 pm84 °FSunny.12 mph45%29.87 "Hg10 mi
2:54 pm84 °FSunny.15 mph43%29.88 "Hg10 mi
1:54 pm83 °FPassing clouds.13 mph46%29.89 "Hg10 mi
12:54 pm81 °FSunny.N/A54%29.90 "Hg10 mi
11:54 am80 °FPartly sunny.8 mph52%29.90 "Hg10 mi
10:54 am79 °FPassing clouds.10 mph62%29.89 "Hg10 mi
9:54 am75 °FSunny.8 mph74%29.90 "Hg10 mi
8:54 am73 °FSunny.9 mph79%29.91 "Hg10 mi
7:54 am70 °FSunny.8 mph87%29.91 "Hg10 mi
6:54 am67 °FSunny.6 mph90%29.91 "Hg10 mi
5:54 am68 °FClear.8 mph87%29.89 "Hg10 mi
4:54 am68 °FClear.9 mph90%29.89 "Hg10 mi
3:54 am67 °FClear.9 mph93%29.88 "Hg10 mi
2:54 am67 °FClear.12 mph93%29.88 "Hg10 mi
1:54 am67 °FClear.8 mph93%29.88 "Hg10 mi
12:54 am68 °FClear.7 mph93%29.88 "Hg10 mi
11:54 pm
Fri, Jul 10
69 °FClear.3 mph87%29.89 "Hg10 mi
10:54 pm70 °FPassing clouds.No wind87%29.90 "Hg10 mi
9:54 pm73 °FMostly cloudy.3 mph81%29.91 "Hg10 mi
9:30 pm74 °FPassing clouds.7 mph88%30.00 "Hg10 mi
8:54 pm73 °FClear.No wind90%29.89 "Hg10 mi
Weather by CustomWeather, © 2020

See weather overview